Regional Weather Roundup
Issued by NWS

Home | Current Version | Previous Version | Text Only | Print | Product List | Glossary Off
Versions: 1 2 3 4 5 6 7 8 9 10 11 12 13 14 15 16 17 18 19 20 21 22 23 24 25 26 27 28

000
ASUS45 KCYS 260610
RWRWY

WYOMING REGIONAL WEATHER ROUNDUP
NATIONAL WEATHER SERVICE CHEYENNE WY
1200 AM MDT THU APR 26 2018

NOTE:  "FAIR" INDICATES FEW OR NO CLOUDS BELOW 12,000 FEET
WITH NO SIGNIFICANT WEATHER AND/OR OBSTRUCTIONS TO VISIBILITY.

WYZ001-260700-
YELLOWSTONE NATIONAL PARK

CITY           SKY/WX    TMP DP  RH WIND       PRES   REMARKS
LK YELLOWSTONE   N/A     33  26  75 NW5       30.30R WCI  29
6HR MIN TEMP:  33; 6HR MAX TEMP:  48; 6HR PCP:  0.01;

W YELLOWSTONE  NOT AVBL

$$
WYZ002>013-054>058-071-098>099-260700-
NORTHERN WYOMING

CITY           SKY/WX    TMP DP  RH WIND       PRES   REMARKS
JACKSON        FAIR      39  24  55 N8        30.21R WCI  33
CODY           LGT RAIN  42  34  73 NW9       30.26F
GREYBULL       FAIR      45  36  70 NW22      30.21R
6HR MIN TEMP:  45; 6HR MAX TEMP:  67; 6HR PCP: TRACE;

WORLAND        CLOUDY    46  37  71 N9        30.21R
6HR MIN TEMP:  46; 6HR MAX TEMP:  66; 6HR PCP: TRACE;

SHERIDAN       CLOUDY    45  36  70 W7        30.21S
6HR MIN TEMP:  44; 6HR MAX TEMP:  61;

BUFFALO        FAIR      43  33  68 N24G36    30.18R
6HR MIN TEMP:  43; 6HR MAX TEMP:  62;

GILLETTE       FAIR      46  30  53 NW16      30.13R
6HR MIN TEMP:  46; 6HR MAX TEMP:  63;

HULETT         FAIR      46  32  57 N9        30.11R
NEWCASTLE      FAIR      48  23  37 NW17      30.04R

$$
WYZ014>020-022>026-101>103-260700-
CENTRAL WYOMING

CITY           SKY/WX    TMP DP  RH WIND       PRES   REMARKS
BIG PINEY      FAIR      34  17  50 N12       30.21S WCI  25
6HR MIN TEMP:  34; 6HR MAX TEMP:  61;

PINEDALE       MOCLDY    32  23  69 NW6       30.22R WCI  26
DUBOIS         FAIR      37  27  65 W9        30.21R WCI  31
LANDER         FAIR      47  27  45 N3        30.23R
6HR MIN TEMP:  47; 6HR MAX TEMP:  66;

RIVERTON       FAIR      45  30  55 N30G41    30.20R
6HR MIN TEMP:  45; 6HR MAX TEMP:  69;

CASPER         CLOUDY    47  27  45 NE12      30.17R
6HR MIN TEMP:  47; 6HR MAX TEMP:  68;

DOUGLAS        FAIR      48  27  44 W14G21    30.12R
6HR MIN TEMP:  47; 6HR MAX TEMP:  71;


$$
WYZ021-027>030-104>119-260700-
SOUTHERN WYOMING

CITY           SKY/WX    TMP DP  RH WIND       PRES   REMARKS
EVANSTON       FAIR      46  22  38 W7        30.24R
6HR MIN TEMP:  45; 6HR MAX TEMP:  60;

KEMMERER       FAIR      41  25  52 N5        30.25R
FORT BRIDGER   FAIR      45  19  35 W8        30.26R
ROCK SPRINGS   FAIR      47  21  35 NW16      30.20R
6HR MIN TEMP:  47; 6HR MAX TEMP:  64;

DIXON          FAIR      35  20  56 NE6       30.16S WCI  29
RAWLINS        FAIR      45  19  35 N22G28    30.16R
6HR MIN TEMP:  45; 6HR MAX TEMP:  63; 6HR PCP: TRACE;

SARATOGA       FAIR      45  12  26 W14G23    30.10R
LARAMIE        FAIR      40  15  36 W10       30.06S WCI  33
6HR MIN TEMP:  40; 6HR MAX TEMP:  63;

CHEYENNE       FAIR      47  23  38 N15G23    30.06R
6HR MIN TEMP:  42; 6HR MAX TEMP:  61;

TORRINGTON     FAIR      56  26  31 N20G33    29.96R
6HR MIN TEMP:  52; 6HR MAX TEMP:  72;

PINE BLUFFS    FAIR      39  27  60 NW18G30   30.03R WCI  30

$$




USA.gov is the U.S. government's official web portal to all federal, state and local government web resources and services.